Theta_e
333 336 336 335 337 339 340 340 341 349 349 345 343 343 338 342 342 343 345 352 353 354 353 353 355 355 354 355 355 356 354 351
334 334 337 335 341 344 340 349 353 354 352 351 347 344 342 338 338 339 345 344 353 354 354 354 354 354 354 355 357 357 356 355
331 334 335 342 342 342 341 344 349 349 351 343 345 342 339 337 338 338 345 346 348 353 354 355 354 354 353 356 357 357 356 357
329 330 334 335 340 338 342 350 345 342 346 340 340 337 338 339 337 338 348 347 348 349 354 356 356 355 355 356 357 358 358 357
326 326 334 335 334 337 338 339 344 343 350 342 337 337 337 339 336 337 345 348 348 349 351 355 356 356 356 357 357 358 359 358
325 328 331 331 331 333 333 336 339 346 345 340 339 339 338 336 335 342 344 343 346 349 350 351 355 356 358 358 358 356 358 360
324 326 327 327 331 333 333 331 332 341 341 341 339 338 338 335 335 336 343 345 345 345 350 350 351 354 355 355 357 357 359 360
327 327 327 327 327 334 334 332 330 333 334 336 336 338 336 334 334 342 338 337 344 346 344 350 351 351 353 354 356 358 357 359
326 328 327 326 329 329 331 337 334 339 337 335 338 338 338 335 337 340 340 340 340 339 344 347 348 351 352 354 356 357 357 358
325 327 329 330 333 336 339 339 340 341 340 339 339 338 345 342 346 347 343 346 345 343 343 347 349 353 352 355 358 358 358 358
327 327 331 335 334 338 338 338 340 343 344 347 347 348 348 350 350 351 353 349 351 351 349 350 351 352 354 356 356 359 358 357
333 333 335 335 335 334 336 339 336 338 340 343 345 347 345 348 349 350 353 353 353 354 353 353 353 353 356 357 358 357 357 359
333 337 337 333 334 336 340 340 334 333 334 336 338 339 338 343 344 347 348 353 354 355 355 354 355 354 354 357 358 358 358 359
332 340 340 331 331 340 332 329 328 328 328 330 332 333 335 336 338 340 344 347 352 357 361 356 356 356 356 357 357 358 358 359
333 334 329 328 328 329 328 328 327 327 327 327 327 328 330 332 334 335 335 340 342 351 358 363 359 357 357 358 359 359 359 359
330 328 328 327 326 327 327 326 326 326 325 325 325 325 325 326 330 332 332 331 334 336 352 358 362 359 358 359 360 360 360 360
329 328 328 326 326 326 326 325 324 324 324 324 324 324 324 324 326 330 330 330 330 333 333 341 357 361 360 358 360 361 361 360
328 325 326 324 323 323 323 323 323 323 323 323 323 324 324 324 324 326 326 332 330 331 331 332 334 354 360 361 359 359 360 360
324 324 324 323 324 324 325 325 324 324 324 323 323 323 324 324 325 325 324 325 329 330 330 330 330 332 340 356 359 356 354 358
Wind_Speed
15 6 7 9 8 4 2 5 3 4 7 7 20 15 6 12 14 13 14 29 40 42 44 45 44 42 36 34 31 29 27 26
10 13 10 8 0 2 4 3 4 4 3 8 14 22 17 5 12 15 19 7 25 40 43 44 44 40 33 36 36 31 26 25
12 5 9 3 4 5 6 3 4 2 2 9 18 14 6 14 25 22 19 11 12 26 37 40 41 40 35 37 35 31 28 24
14 19 17 10 9 7 5 4 3 5 0 8 10 19 21 24 38 28 17 15 13 12 22 35 38 38 35 35 34 32 29 24
12 8 7 4 5 7 5 5 6 4 4 7 20 25 35 28 34 19 11 14 14 17 20 30 36 37 37 36 32 30 27 26
8 9 1 8 7 7 8 6 5 5 9 6 12 9 9 31 20 7 12 7 9 16 21 26 31 36 34 35 31 26 32 32
10 13 8 8 11 12 9 8 2 17 17 22 22 22 31 19 17 28 13 14 8 8 19 23 28 32 33 31 32 27 33 35
7 10 8 11 9 4 11 8 6 7 7 19 17 12 11 17 5 11 14 13 3 5 10 18 25 29 33 34 34 31 34 32
4 6 7 7 6 5 4 16 8 9 5 10 5 5 15 13 3 10 14 13 9 7 9 14 18 25 29 34 31 33 31 31
4 4 4 4 20 12 22 15 13 13 12 7 10 19 24 24 20 24 18 19 18 16 20 20 18 21 25 29 27 29 30 29
5 4 5 5 16 12 17 15 14 12 13 19 23 31 27 26 20 25 28 25 21 20 20 8 16 17 21 26 29 23 26 29
5 2 4 5 16 25 9 9 18 20 17 20 23 12 6 23 20 20 21 22 24 19 15 4 13 16 18 22 25 27 29 29
2 3 4 6 11 5 8 0 17 23 22 23 12 17 20 22 19 18 21 21 22 21 11 14 10 16 17 19 23 25 28 30
3 7 5 24 12 7 9 23 22 23 25 23 24 23 20 23 20 18 21 22 21 22 21 11 6 13 15 18 19 23 27 29
5 7 6 25 26 27 25 21 22 22 21 25 23 23 21 22 23 22 21 23 24 20 18 13 8 10 14 19 22 22 27 29
9 10 18 24 23 24 21 20 20 20 20 21 22 21 22 22 20 22 24 25 26 25 18 15 13 15 18 17 21 25 25 27
10 16 23 24 19 18 15 16 16 16 15 17 19 20 20 22 21 21 22 25 23 23 24 22 18 8 16 22 19 25 27 28
5 17 13 15 20 19 17 14 15 15 17 18 19 20 21 21 21 19 21 19 23 21 22 26 23 21 12 16 26 26 30 29
21 17 19 20 22 21 20 21 21 20 19 21 21 21 22 23 23 25 23 20 19 21 22 25 28 26 24 21 24 24 33 30
Wind_Direction
222 237 139 260 291 246 17 322 35 138 346 325 337 346 346 95 107 292 251 192 190 193 194 199 203 205 211 214 216 221 224 227
251 211 193 183 90 353 16 49 351 69 153 153 296 280 284 338 220 312 245 158 195 196 198 201 206 206 208 219 215 220 226 228
292 212 183 115 114 47 96 142 142 324 220 188 206 230 261 263 265 317 202 149 143 197 196 203 205 204 206 215 214 220 226 232
256 266 190 182 169 140 121 244 192 154 75 358 286 337 337 329 312 304 165 154 154 157 188 199 203 201 210 214 216 224 224 235
291 318 164 205 219 170 150 105 247 166 262 304 360 4 336 315 311 280 127 155 162 164 169 194 201 202 205 210 218 228 228 229
228 237 244 183 202 219 168 168 220 161 183 192 218 200 239 286 314 157 155 155 169 185 185 191 199 201 207 212 218 222 223 225
249 261 295 299 222 211 211 235 194 171 168 189 216 196 201 277 77 336 203 165 149 150 204 204 206 210 212 223 218 210 214 222
253 273 266 262 292 220 214 221 234 170 218 194 208 180 247 206 216 16 62 72 143 206 209 216 215 217 220 219 219 209 211 221
247 278 295 321 295 289 28 42 72 63 312 125 121 142 256 230 30 42 27 21 6 339 268 248 230 227 220 218 218 213 214 219
208 305 264 235 33 67 74 46 40 49 66 124 180 194 79 85 33 31 26 24 4 340 330 297 228 219 221 214 213 214 215 218
158 205 222 17 36 56 73 37 31 31 31 48 90 62 35 36 33 25 21 22 1 343 342 269 211 213 216 209 212 208 216 221
37 204 193 2 15 340 104 46 28 32 30 36 58 64 19 31 24 11 11 16 18 360 3 238 215 216 218 216 214 221 224 227
33 98 35 336 348 5 72 313 48 43 32 38 52 52 37 33 19 6 358 356 11 24 353 345 254 235 233 230 230 233 230 229
131 53 346 330 31 87 97 57 45 43 31 34 37 35 30 29 22 10 2 355 354 15 25 341 298 251 245 242 251 239 230 232
74 136 108 56 77 76 74 54 40 32 25 24 22 19 19 13 12 4 359 357 355 353 8 28 275 272 270 268 246 235 233 235
94 90 74 58 56 68 60 46 34 24 19 13 5 1 356 0 355 349 347 349 347 351 338 344 348 247 288 266 254 245 246 241
67 40 63 38 54 47 40 31 20 12 8 356 352 348 344 341 345 337 332 332 333 335 341 335 324 297 271 277 263 252 249 245
78 45 51 30 36 34 27 14 2 3 349 346 342 336 335 335 335 340 338 327 323 321 328 330 331 307 284 267 265 255 245 240
42 40 39 29 25 17 12 4 359 355 341 332 330 328 329 330 328 322 322 318 332 325 310 320 317 319 318 287 268 269 264 257